Flag for Kazakhstan Weather past 2 weeks in Astana, Kazakhstan

Now
57 °F

Broken clouds.


Feels Like: 56 °F
Forecast: 46 / 59 °F
Wind: 6 mph from North

Location: Astana

Current Time: Jul 4, 2015 at 8:06:51 AM

Latest Report: Jul 4, 2015 at 7:30 AM


Visibility: N/A

Pressure: 29.65 "Hg

Humidity: 72%

Dew point: 48 °F

Location of AstanaLocation

Historic Weather in Astana — Graph

°F

Astana temperature yesterday

Maximum temperature yesterday: 81 °F (at 2:30 PM)
Minimum temperature yesterday: 63 °F (at 5:00 AM)
Average temperature yesterday: 71 °F

Past Weeks' High & Low Weather Summary

 TemperatureHumidityPressure
High93 °F (Jul 1, 7:30 PM)83% (Jun 19, 6:00 AM)30.07 "Hg (Jun 19, 6:00 AM)
Low52 °F (Jun 29, 4:00 AM)15% (Jul 1, 12:00 PM)29.50 "Hg (Jul 2, 9:00 PM)
Average72 °F50%29.86 "Hg
* Reported Jun 19 6:00 AM — Jul 4 6:30 AM, Astana, Weather by CustomWeather, © 2015

Note: Actual official high and low records may vary slightly from our data, if they occured in-between our weather recording intervals... More about our weather records

Advertising

Astana weather history for previous 24 hours

 ConditionsComfort  
Time TempWeatherWind HumidityBarometerVisibility
6:30 AM
Sat, Jul 4
57 °FBroken clouds.8 mph72%29.68 "HgN/A
6:00 AM57 °FMostly cloudy.6 mph77%29.68 "HgN/A
5:30 AM57 °FMostly cloudy.10 mph77%29.68 "HgN/A
5:00 AM57 °FMostly cloudy.8 mph77%29.68 "HgN/A
4:30 AM57 °FMostly cloudy.8 mph77%29.68 "HgN/A
4:00 AM57 °FMostly cloudy.8 mph77%29.68 "HgN/A
3:30 AM57 °FMostly cloudy.10 mph77%29.68 "HgN/A
3:00 AM59 °FOvercast.10 mph72%29.65 "HgN/A
2:30 AM59 °FOvercast.10 mph72%29.68 "HgN/A
2:00 AM59 °FOvercast.10 mph72%29.68 "HgN/A
1:30 AM61 °FOvercast.10 mph68%29.68 "HgN/A
1:00 AM61 °FOvercast.15 mph68%29.65 "HgN/A
12:30 AM61 °FMostly cloudy.15 mph68%29.65 "HgN/A
12:00 AM63 °FMostly cloudy.13 mph64%29.65 "HgN/A
11:30 PM
Fri, Jul 3
63 °FMostly cloudy.13 mph59%29.65 "HgN/A
11:00 PM64 °FMostly cloudy.15 mph60%29.65 "HgN/A
10:30 PM64 °FSunny.13 mph56%29.65 "Hg10 mi
10:00 PM66 °FSunny.17 mph49%29.62 "Hg10 mi
9:30 PM66 °FPassing clouds.13 mph56%29.62 "HgN/A
9:00 PM68 °FSunny.15 mph49%29.62 "Hg10 mi
8:30 PM68 °FSunny.13 mph53%29.59 "Hg10 mi
8:00 PM70 °FSunny.15 mph50%29.59 "Hg10 mi
7:30 PM72 °FSunny.17 mph47%29.59 "Hg10 mi
7:00 PM73 °FSunny.17 mph44%29.56 "Hg10 mi
6:30 PM75 °FPassing clouds.17 mph41%29.56 "HgN/A
6:00 PM75 °FPartly sunny.15 mph41%29.56 "HgN/A
5:30 PM77 °FPartly sunny.17 mph39%29.56 "HgN/A
5:00 PM77 °FBroken clouds.20 mph36%29.56 "HgN/A
4:30 PM79 °FBroken clouds.15 mph34%29.53 "HgN/A
4:00 PM79 °FBroken clouds.17 mph39%29.53 "HgN/A
3:30 PM75 °FBroken clouds.17 mph50%29.53 "HgN/A
3:00 PM81 °FBroken clouds.22 mph28%29.53 "HgN/A
2:30 PM81 °FBroken clouds.22 mph32%29.53 "HgN/A
12:30 PM79 °FPartly sunny.24 mph37%29.50 "HgN/A
11:30 AM79 °FBroken clouds.22 mph39%29.53 "HgN/A
11:00 AM79 °FBroken clouds.17 mph42%29.53 "HgN/A
10:30 AM77 °FBroken clouds.15 mph51%29.53 "HgN/A
9:30 AM75 °FBroken clouds.13 mph54%29.56 "HgN/A
8:30 AM73 °FSunny.10 mph61%29.56 "Hg10 mi
8:00 AM70 °FSunny.10 mph69%29.56 "Hg10 mi
Weather by CustomWeather, © 2015

See weather overviewHow to use our weather pages